Weather History for Crestview, FL

Change the Weather History Date:

Tuesday, November 6, 2012

  Actual Average Record
Temperature  
Mean Temperature 55 °F -  
Max Temperature 63 °F - - ()
Min Temperature 47 °F - - ()
Degree Days  
Heating Degree Days 10    
Growing Degree Days 5 (Base 50)    
Moisture  
Dew Point 49 °F    
Average Humidity 91    
Maximum Humidity 100    
Minimum Humidity 52    
Precipitation  
Precipitation 0.28 in - - ()
Sea Level Pressure  
Sea Level Pressure 29.95 in    
Wind  
Wind Speed 7 mph (NNW)    
Max Wind Speed 14 mph    
Max Gust Speed 17 mph    
Visibility 6 miles    
Events Fog , Rain    
T = Trace of Precipitation, MM = Missing Value Source: NWS Daily Summary

Daily Weather History Graph

Daily Weather History Graph

Search for Another Location

Airport:

Trip Planner

Search our weather history database for the weather conditions in past years. The results will help you decide how hot, cold, wet, or windy it might be!

Date:

Astronomy

Nov. 06, 2012 Rise Set
Actual Time 6:05 AM CST 4:53 PM CST
Civil Twilight 5:40 AM CST 5:18 PM CST
Nautical Twilight 5:11 AM CST 5:47 PM CST
Astronomical Twilight 4:43 AM CST 6:16 PM CST
Moon 11:27 PM CST (11/6) 12:00 PM CST (11/6)
Length of Visible Light 11h 38m
Length of Day
10h 48m
Waning Gibbous, 53% of the Moon is Illuminated
Nov 6
Waning Gibbous
Nov 6
Last Quarter
Nov 13
New
Nov 20
First Quarter
Nov 28
Full

Hourly Weather History & Observations

Time (CST) Temp. Dew Point Humidity Pressure Visibility Wind Dir Wind Speed Gust Speed Precip Events Conditions
12:04 AM 55.4 °F 51.8 °F 88% 29.94 in 2.5 mi East 3.5 mph - N/A Rain Heavy Rain
12:07 AM 55.4 °F 51.8 °F 88% 29.94 in 2.0 mi Calm Calm - N/A Rain Heavy Rain
12:10 AM 55.4 °F 53.6 °F 94% 29.93 in 1.8 mi ESE 10.4 mph - N/A Rain Heavy Rain
12:13 AM 55.4 °F 53.6 °F 94% 29.93 in 2.0 mi ESE 10.4 mph - N/A Rain Heavy Rain
12:18 AM 55.4 °F 53.6 °F 94% 29.93 in 2.5 mi SW 3.5 mph - N/A Rain Heavy Rain
12:19 AM 55.4 °F 53.6 °F 94% 29.92 in 3.0 mi SW 4.6 mph - N/A Rain Heavy Rain
12:55 AM 55.8 °F 54.3 °F 95% 29.91 in 10.0 mi South 9.2 mph - 0.20 in Rain Light Rain
1:55 AM 54.9 °F 54.7 °F 99% 29.89 in 10.0 mi North 4.6 mph - 0.07 in Rain Light Rain
1:57 AM 55.4 °F 55.4 °F 100% 29.90 in 10.0 mi North 5.8 mph - N/A   Mostly Cloudy
2:55 AM 54.3 °F 54.0 °F 99% 29.90 in 10.0 mi Calm Calm - 0.00 in   Scattered Clouds
3:55 AM 52.0 °F 51.6 °F 99% 29.92 in 10.0 mi Calm Calm - N/A   Clear
4:55 AM 50.4 °F 50.0 °F 99% 29.93 in 10.0 mi NW 5.8 mph - N/A   Clear
5:05 AM 50.0 °F 50.0 °F 100% 29.93 in 10.0 mi NNW 5.8 mph - N/A   Partly Cloudy
5:14 AM 50.0 °F 50.0 °F 100% 29.93 in 10.0 mi NNW 5.8 mph - N/A   Mostly Cloudy
5:16 AM 50.0 °F 50.0 °F 100% 29.93 in 8.0 mi NNW 4.6 mph - N/A   Mostly Cloudy
5:21 AM 50.0 °F 50.0 °F 100% 29.93 in 2.0 mi NNW 5.8 mph - N/A   Mostly Cloudy
5:22 AM 50.0 °F 50.0 °F 100% 29.93 in 1.8 mi NNW 5.8 mph - N/A   Mostly Cloudy
5:23 AM 50.0 °F 50.0 °F 100% 29.93 in 1.2 mi NNW 4.6 mph - N/A   Mostly Cloudy
5:24 AM 50.0 °F 50.0 °F 100% 29.93 in 1.0 mi NNW 4.6 mph - N/A   Mist
5:26 AM 50.0 °F 50.0 °F 100% 29.93 in 0.8 mi NNW 5.8 mph - N/A   Mist
5:29 AM 50.0 °F 50.0 °F 100% 29.93 in 0.5 mi NNW 5.8 mph - N/A Fog Fog
5:42 AM 50.0 °F 50.0 °F 100% 29.94 in 0.5 mi NNW 5.8 mph - N/A Fog Fog
5:44 AM 50.0 °F 50.0 °F 100% 29.94 in 0.8 mi NNW 6.9 mph - N/A   Mist
5:50 AM 50.0 °F 50.0 °F 100% 29.94 in 1.0 mi NNW 6.9 mph - N/A   Mist
5:54 AM 51.8 °F 50.0 °F 94% 29.94 in 1.2 mi NNW 8.1 mph - N/A   Overcast
5:55 AM 50.9 °F 50.5 °F 99% 29.94 in 1.0 mi NNW 6.9 mph - 0.01 in   Mist
5:57 AM 51.8 °F 50.0 °F 94% 29.94 in 1.5 mi North 8.1 mph - N/A   Overcast
6:00 AM 51.8 °F 50.0 °F 94% 29.94 in 2.0 mi North 8.1 mph - N/A   Overcast
6:04 AM 51.8 °F 50.0 °F 94% 29.95 in 2.5 mi North 8.1 mph - N/A   Overcast
6:06 AM 51.8 °F 50.0 °F 94% 29.95 in 3.0 mi North 6.9 mph - N/A   Overcast
6:13 AM 50.0 °F 50.0 °F 100% 29.95 in 2.5 mi North 9.2 mph - N/A   Overcast
6:16 AM 50.0 °F 50.0 °F 100% 29.95 in 2.0 mi NNW 9.2 mph - N/A   Overcast
6:17 AM 50.0 °F 50.0 °F 100% 29.95 in 1.8 mi North 10.4 mph - N/A   Overcast
6:19 AM 50.0 °F 50.0 °F 100% 29.96 in 1.5 mi NNW 9.2 mph - N/A   Overcast
6:21 AM 50.0 °F 50.0 °F 100% 29.96 in 1.2 mi NNW 9.2 mph - N/A   Overcast
6:23 AM 50.0 °F 50.0 °F 100% 29.96 in 1.5 mi NNW 10.4 mph - N/A   Overcast
6:37 AM 50.0 °F 50.0 °F 100% 29.97 in 2.0 mi NNW 8.1 mph - N/A   Overcast
6:39 AM 50.0 °F 50.0 °F 100% 29.97 in 2.5 mi NNW 8.1 mph - N/A   Overcast
6:41 AM 50.0 °F 50.0 °F 100% 29.97 in 3.0 mi NW 8.1 mph - N/A   Overcast
6:55 AM 50.2 °F 50.0 °F 99% 29.98 in 10.0 mi NNW 6.9 mph - N/A   Overcast
7:03 AM 50.0 °F 50.0 °F 100% 29.98 in 10.0 mi NNW 8.1 mph - N/A   Overcast
7:13 AM 50.0 °F 50.0 °F 100% 29.98 in 10.0 mi NNW 10.4 mph - N/A   Overcast
7:21 AM 50.0 °F 50.0 °F 100% 29.98 in 10.0 mi NNW 13.8 mph - N/A   Overcast
7:39 AM 50.0 °F 50.0 °F 100% 29.99 in 10.0 mi NW 12.7 mph - N/A   Overcast
7:47 AM 50.0 °F 50.0 °F 100% 29.99 in 10.0 mi NNW 12.7 mph - N/A   Overcast
7:55 AM 50.2 °F 49.8 °F 99% 29.99 in 10.0 mi NNW 8.1 mph - N/A   Overcast
8:01 AM 50.0 °F 50.0 °F 100% 29.99 in 10.0 mi NW 13.8 mph - N/A   Overcast
8:26 AM 50.0 °F 46.4 °F 87% 29.99 in 10.0 mi NNW 13.8 mph - N/A   Overcast
8:55 AM 52.0 °F 48.0 °F 86% 29.99 in 10.0 mi North 11.5 mph - N/A   Mostly Cloudy
9:29 AM 53.6 °F 46.4 °F 77% 29.98 in 10.0 mi NNW 11.5 mph - N/A   Scattered Clouds
9:55 AM 56.1 °F 47.8 °F 74% 29.98 in 10.0 mi North 10.4 mph - N/A   Partly Cloudy
10:55 AM 58.3 °F 47.5 °F 67% 29.97 in 10.0 mi NNW 9.2 mph - N/A   Partly Cloudy
11:55 AM 61.0 °F 46.9 °F 60% 29.95 in 10.0 mi WNW 6.9 mph 17.3 mph N/A   Partly Cloudy
12:55 PM 62.8 °F 46.9 °F 56% 29.92 in 10.0 mi NNW 6.9 mph - N/A   Partly Cloudy
1:55 PM 63.3 °F 45.9 °F 53% 29.91 in 10.0 mi NNW 12.7 mph - N/A   Scattered Clouds
2:55 PM 63.9 °F 45.7 °F 52% 29.94 in 10.0 mi NNW 13.8 mph - N/A   Scattered Clouds
3:55 PM 59.9 °F 45.3 °F 59% 29.95 in 10.0 mi NW 11.5 mph - N/A   Scattered Clouds
4:55 PM 56.5 °F 44.1 °F 63% 29.96 in 10.0 mi NW 9.2 mph - N/A   Scattered Clouds
5:55 PM 50.9 °F 45.0 °F 80% 29.96 in 10.0 mi NNW 5.8 mph - N/A   Partly Cloudy
6:55 PM 48.7 °F 44.4 °F 85% 29.99 in 10.0 mi WNW 4.6 mph - N/A   Scattered Clouds
7:55 PM 50.2 °F 44.8 °F 82% 30.01 in 10.0 mi WNW 5.8 mph - N/A   Mostly Cloudy
8:55 PM 49.6 °F 45.0 °F 84% 30.02 in 10.0 mi West 3.5 mph - N/A   Scattered Clouds
9:55 PM 49.3 °F 44.8 °F 84% 30.02 in 10.0 mi WNW 5.8 mph - N/A   Mostly Cloudy
10:55 PM 47.7 °F 44.1 °F 87% 30.01 in 10.0 mi West 4.6 mph - N/A   Scattered Clouds
11:55 PM 47.1 °F 44.2 °F 90% 30.01 in 10.0 mi WNW 4.6 mph - N/A   Scattered Clouds